{"data":{"norad_id":55583,"intl_designator":"2023-020Q","name":"STARLINK-5742","alt_names":[],"object_type":"PAYLOAD","status":"ACTIVE","operator":null,"country":"US","launch_date":"2023-02-12","launch_site_code":"AFETR","launch_vehicle":null,"mission":null,"orbit_class":"UNKNOWN","rcs_meters":null,"size_class":null,"mass_kg":null,"dimensions":null,"purposes":["comms"],"wikipedia_slug":null,"has_3d_model":false,"image_url":null,"decayed_at":null,"tle_current":{"epoch":"2026-09-20T12:29:50.569152Z","epoch_age_seconds":98576,"freshness":"FRESH","line1":"1 55583U 23020Q   26263.52072418 -.00000243  00000+0  69300-6 0  9994","line2":"2 55583  43.0029 344.5609 0001129 272.1799  87.8923 15.27571291198710","mean_motion":15.27571291,"eccentricity":0.0001129,"inclination_deg":43.0029,"raan_deg":344.5609,"arg_perigee_deg":272.1799,"mean_anomaly_deg":87.8923,"bstar":6.93e-7,"rev_number":19871,"period_min":94.267286147891,"perigee_km":482.30054318815,"apogee_km":483.84980489705,"semimajor_km":6861.2121740426,"source":"CELESTRAK","updated_at":"2026-09-21T09:00:33.265894Z"}}}